CAPE
0 0 0 0 0 0 0 0 0 0 0 0 0 0 0 0 0 0 0 0 0 0 0 171 2123 1567 1196 1162 1107 1006 704 329 2 1 0 0 0 0 0 3 54 178 181 198 33 26 72 46 167
0 0 0 0 0 0 0 0 0 0 0 0 0 0 0 0 0 0 0 0 0 0 0 17 1637 2130 1657 1478 1406 1107 656 530 123 84 28 2 0 0 0 42 81 104 172 227 153 97 127 111 166
0 0 0 0 0 0 0 0 0 0 0 0 0 0 0 0 0 0 0 0 0 0 0 22 861 2213 1782 1542 1306 976 767 489 293 313 180 86 19 20 6 67 80 92 109 122 221 106 84 93 135
0 0 0 0 0 0 0 0 0 0 0 0 0 0 0 0 0 0 0 0 0 0 0 0 396 1551 1784 1181 1115 933 831 729 650 291 200 182 111 47 48 59 61 78 115 172 147 269 310 167 159
0 0 0 0 0 0 0 0 0 0 0 0 0 0 0 0 0 0 0 0 0 0 0 0 366 1329 1390 1184 1147 878 866 746 486 209 402 223 207 98 97 107 91 66 15 79 239 224 411 581 547
0 0 0 0 0 0 0 0 0 0 0 0 0 0 0 0 0 0 0 0 0 0 0 39 229 780 1025 807 1044 726 321 191 240 253 166 308 275 133 151 147 105 63 7 10 89 333 349 687 853
0 0 0 0 0 0 0 0 0 0 0 0 0 0 0 0 0 0 0 0 0 0 0 0 0 0 0 0 0 0 6 24 44 85 149 185 155 175 153 158 173 171 75 6 17 370 458 390 639
0 0 0 0 0 0 0 0 0 0 0 0 0 0 0 0 0 0 0 0 0 0 0 0 0 0 0 0 0 0 0 1 4 22 54 151 158 156 196 261 185 158 155 95 49 335 381 393 512
0 0 0 0 0 0 0 0 0 0 0 0 0 0 0 0 0 0 0 0 0 0 0 0 0 0 0 0 0 0 0 4 8 7 9 36 130 161 150 149 215 165 175 174 142 331 580 393 487
0 0 0 0 0 0 0 0 0 0 0 0 0 0 0 0 0 0 0 0 0 0 0 0 0 0 0 0 0 1 6 15 13 13 13 42 127 60 16 99 157 158 228 201 203 325 334 523 537
0 0 0 0 0 0 0 0 0 0 0 0 0 0 0 0 0 0 0 0 0 0 0 0 0 0 0 0 0 5 9 3 5 8 17 22 110 272 78 59 141 457 244 306 366 393 622 768 664
0 0 0 0 0 0 0 0 0 0 0 0 0 0 0 0 0 0 0 0 0 0 0 0 0 0 0 0 2 13 4 16 22 8 21 40 88 157 32 70 164 342 438 325 435 666 924 849 709
0 0 0 0 0 0 0 0 0 0 0 0 0 0 0 0 0 0 0 0 0 0 0 0 0 0 0 2 1 27 59 9 15 7 26 6 99 113 85 66 131 205 144 264 487 642 521 583 704
0 0 0 0 0 0 0 0 0 0 0 0 0 0 0 0 0 0 0 0 0 0 0 0 0 0 0 3 3 30 28 27 5 2 95 107 216 275 259 134 99 196 258 478 754 845 712 586 705
0 0 0 0 0 0 0 0 0 0 0 0 0 0 0 0 0 0 0 0 0 0 0 0 0 0 1 1 1 37 75 78 74 136 153 151 228 307 303 458 349 356 509 622 723 513 582 578 882
0 0 0 0 0 0 0 0 0 0 0 0 0 0 0 0 0 0 0 0 0 0 0 0 0 0 0 1 15 43 156 115 219 329 350 330 415 432 483 511 562 442 508 614 603 438 364 536 787
0 0 0 0 0 0 0 0 0 0 0 0 0 0 0 0 0 0 0 0 0 0 0 0 0 0 0 13 44 78 136 187 217 282 363 471 568 600 575 521 538 534 439 597 678 667 533 698 785
0 0 0 0 0 0 0 0 0 0 0 0 0 0 0 0 0 0 0 0 0 0 0 0 0 0 0 9 49 83 124 146 172 209 256 250 400 397 613 492 298 285 546 644 661 660 623 792 951
0 0 0 0 0 0 0 0 0 0 0 0 0 0 0 0 0 0 0 0 0 0 0 0 0 0 0 33 40 94 140 82 138 178 31 64 175 206 465 643 607 629 300 449 685 738 779 1137 1136
0 0 0 0 0 0 0 0 0 0 0 0 0 0 0 0 0 0 0 0 0 0 0 0 0 0 0 0 25 2 38 60 61 86 150 142 68 149 211 223 273 465 448 482 782 834 910 933 1112
0 0 0 0 0 0 0 0 0 0 0 0 0 0 0 0 0 0 0 0 0 0 0 0 0 0 0 0 17 58 143 71 35 63 16 22 66 73 187 208 345 442 622 788 898 1055 889 695 907
0 0 0 0 0 0 0 0 0 0 0 0 0 0 0 0 0 0 0 0 0 0 0 0 0 0 0 1 100 139 207 111 71 95 151 198 82 57 72 120 134 138 463 649 732 1167 743 586 563
0 0 0 0 0 0 0 0 0 0 0 0 0 0 0 0 0 0 0 0 0 0 0 0 0 0 0 34 64 67 85 113 127 136 166 364 237 315 185 116 258 178 134 284 678 578 435 693 675
0 0 0 0 0 0 0 0 0 0 0 0 0 0 0 0 0 0 0 0 0 0 0 0 104 0 0 34 20 32 22 45 136 117 106 138 127 328 381 292 308 139 323 282 642 854 816 814 859
0 0 0 0 0 0 0 0 0 0 0 0 0 0 0 0 0 0 0 0 0 0 0 0 6 0 0 6 50 28 0 19 15 6 58 89 144 152 151 138 135 39 138 176 217 141 748 703 393
0 0 0 0 0 0 0 0 0 0 0 0 0 0 0 0 0 0 0 0 0 0 0 0 0 0 0 0 33 0 0 0 0 181 11 151 126 79 28 92 122 92 6 210 463 894 665 471 292
0 0 0 0 0 0 0 0 0 2 28 13 0 0 0 0 0 0 0 0 0 0 0 0 0 0 0 0 0 0 0 0 0 0 37 172 87 123 126 0 74 377 314 108 90 493 343 1 1
0 0 0 0 0 0 0 0 1 2 6 74 0 0 0 0 0 0 0 0 0 0 0 0 9 0 0 0 0 0 0 0 0 0 22 37 11 4 0 0 0 141 288 51 81 222 294 22 133
0 0 0 0 0 0 0 0 58 135 278 514 126 0 0 0 0 0 0 0 0 0 0 0 14 0 0 0 0 0 0 0 0 0 0 0 0 0 0 0 0 4 42 2 2 77 209 178 108
0 0 0 0 0 0 0 0 3 149 395 456 167 0 0 0 0 0 0 0 0 0 0 0 11 0 0 0 0 0 0 0 0 0 0 0 0 0 0 0 0 0 0 0 0 2 27 114 85
CIN
0 0 0 0 0 0 0 0 0 0 0 0 0 0 0 0 0 0 0 0 0 0 0 -112 -4 -7 -17 -18 -8 -4 -11 -14 -6 -16 0 0 0 0 0 -48 -19 0 0 -1 -4 0 -8 -10 -6
0 0 0 0 0 0 0 0 0 0 0 0 0 0 0 0 0 0 0 0 0 0 0 -129 -23 -3 -15 -10 -1 -6 -11 -4 -14 -18 -90 0 0 0 0 -95 -21 -6 -1 0 -9 -46 -11 -4 -1
0 0 0 0 0 0 0 0 0 0 0 0 0 0 0 0 0 0 0 0 0 0 0 -105 -53 -15 -12 -6 -6 -8 -4 -3 0 0 -11 -67 -1 0 0 -110 -54 -24 -19 -8 0 -35 -46 -10 -4
0 0 0 0 0 0 0 0 0 0 0 0 0 0 0 0 0 0 0 0 0 0 0 0 -70 -7 -2 -4 -4 -6 -2 0 0 0 -7 -16 -110 0 0 -199 -145 -77 -20 -13 -21 -1 -1 -2 -3
0 0 0 0 0 0 0 0 0 0 0 0 0 0 0 0 0 0 0 0 0 0 0 0 -69 -9 -2 0 0 -1 0 0 -1 -14 0 -12 -38 -77 0 0 -159 0 0 -77 0 -3 -1 0 0
0 0 0 0 0 0 0 0 0 0 0 0 0 0 0 0 0 0 0 0 0 0 0 -75 -47 -18 -3 0 0 -1 -4 -7 -11 -11 0 -4 -9 -1 -1 0 0 0 0 0 -33 -2 -4 0 -1
0 0 0 0 0 0 0 0 0 0 0 0 0 0 0 0 0 0 0 0 0 0 0 0 0 0 0 0 0 0 -26 -12 -2 -1 0 0 0 0 -3 0 0 0 0 0 -1 -1 -2 -4 0
0 0 0 0 0 0 0 0 0 0 0 0 0 0 0 0 0 0 0 0 0 0 0 0 0 0 0 0 0 0 0 0 0 0 0 -1 -3 -1 0 -5 -5 -3 0 0 0 0 -1 -7 -1
0 0 0 0 0 0 0 0 0 0 0 0 0 0 0 0 0 0 0 0 0 0 0 0 0 0 0 0 0 0 0 0 0 0 0 -3 -1 -2 0 -1 -1 -3 0 0 0 0 0 -6 -1
0 0 0 0 0 0 0 0 0 0 0 0 0 0 0 0 0 0 0 0 0 0 0 0 0 0 0 0 0 0 0 0 0 0 0 0 -6 -4 -28 -9 -5 -4 0 0 -8 0 -2 -3 0
0 0 0 0 0 0 0 0 0 0 0 0 0 0 0 0 0 0 0 0 0 0 0 0 0 0 0 0 0 0 0 -3 -1 0 0 -1 -13 0 -1 -1 0 0 0 0 -1 0 0 0 0
0 0 0 0 0 0 0 0 0 0 0 0 0 0 0 0 0 0 0 0 0 0 0 0 0 0 0 0 0 0 -1 0 0 0 -89 -24 -65 -37 0 0 -8 0 0 0 0 0 0 0 0
0 0 0 0 0 0 0 0 0 0 0 0 0 0 0 0 0 0 0 0 0 0 0 0 0 0 0 0 0 -28 -27 0 0 0 -18 -16 -34 -59 -113 0 -26 -1 0 0 0 0 0 0 0
0 0 0 0 0 0 0 0 0 0 0 0 0 0 0 0 0 0 0 0 0 0 0 0 0 0 0 0 0 -23 -19 -2 0 0 -5 -1 0 0 -5 -47 -35 0 0 0 0 0 0 0 0
0 0 0 0 0 0 0 0 0 0 0 0 0 0 0 0 0 0 0 0 0 0 0 0 0 0 0 0 0 -11 0 -3 -7 -1 0 0 0 0 0 0 0 0 0 0 0 0 0 0 0
0 0 0 0 0 0 0 0 0 0 0 0 0 0 0 0 0 0 0 0 0 0 0 0 0 0 0 0 -28 -3 0 0 0 -2 0 0 0 0 0 0 -1 -2 -1 0 0 0 0 0 0
0 0 0 0 0 0 0 0 0 0 0 0 0 0 0 0 0 0 0 0 0 0 0 0 0 0 0 -13 -15 -3 -1 -5 0 0 -2 0 0 0 -2 -2 -2 -7 -11 -1 0 0 0 0 0
0 0 0 0 0 0 0 0 0 0 0 0 0 0 0 0 0 0 0 0 0 0 0 0 0 0 0 -56 -25 -8 -4 -3 -1 -1 0 -5 0 -1 0 -4 -22 -28 -2 0 0 0 0 0 0
0 0 0 0 0 0 0 0 0 0 0 0 0 0 0 0 0 0 0 0 0 0 0 0 0 0 0 -63 -34 -24 -1 -1 -1 0 -7 -3 0 -1 0 0 0 0 -18 -7 0 0 0 0 0
0 0 0 0 0 0 0 0 0 0 0 0 0 0 0 0 0 0 0 0 0 0 0 0 0 0 0 -7 -65 -57 -10 -4 -2 -2 0 0 -2 0 -4 0 0 0 0 0 0 0 0 0 0
0 0 0 0 0 0 0 0 0 0 0 0 0 0 0 0 0 0 0 0 0 0 0 0 0 0 0 0 -47 -28 -10 -10 -10 -2 -2 -2 0 0 0 0 0 0 0 0 0 0 0 0 0
0 0 0 0 0 0 0 0 0 0 0 0 0 0 0 0 0 0 0 0 0 0 0 0 0 0 0 -6 -17 -66 -16 -16 -4 0 0 0 0 -5 -2 -14 0 0 0 -1 0 0 -9 -2 0
0 0 0 0 0 0 0 0 0 0 0 0 0 0 0 0 0 0 0 0 0 0 0 0 0 0 0 -143 -54 -46 -39 -22 -9 -12 -1 0 -1 -1 0 -1 0 0 -4 0 0 -1 -7 -6 -2
0 0 0 0 0 0 0 0 0 0 0 0 0 0 0 0 0 0 0 0 0 0 0 0 -37 0 0 -71 -52 -72 -88 -51 -10 -7 -11 -13 -37 -5 0 0 0 -1 -1 0 0 0 0 -3 0
0 0 0 0 0 0 0 0 0 0 0 0 0 0 0 0 0 0 0 0 0 0 0 0 -49 0 0 -35 -35 -65 -51 -92 -135 -93 -30 -6 -33 -37 -2 0 0 -16 -3 -1 -3 -7 -1 -5 -16
0 0 0 0 0 0 0 0 0 0 0 0 0 0 0 0 0 0 0 0 0 0 0 0 0 0 0 0 -41 -5 0 0 -8 -5 -87 -25 -24 -20 -26 -8 -6 -2 -70 -10 -5 0 0 -13 -27
0 0 0 0 0 0 0 0 0 -56 -168 -287 0 0 0 0 0 0 0 0 0 0 0 0 0 0 0 0 0 0 0 0 0 0 -96 -53 -61 -40 -10 -40 -5 0 0 -48 -46 0 -6 -63 -166
0 0 0 0 0 0 0 0 -15 -10 -35 -169 0 0 0 0 0 0 0 0 0 0 0 0 -83 0 0 0 0 0 0 0 0 0 -64 -81 -72 -98 0 -133 0 -38 0 -30 -87 -1 0 -59 -6
0 0 0 0 0 0 0 0 -66 -40 -76 -89 -230 0 0 0 0 0 0 0 0 0 0 0 -92 0 0 0 0 0 0 0 0 0 0 0 0 0 0 0 0 -126 -50 -10 -24 -38 -11 -12 -36
0 0 0 0 0 0 0 -3 -91 -119 -122 -173 -261 0 0 0 0 0 0 0 0 0 0 0 -164 0 0 0 0 0 0 0 0 0 0 0 0 0 0 0 0 0 -8 0 0 -116 -104 -38 -50
Wind_Speed
11 11 4 3 4 3 2 2 2 3 2 2 7 4 6 2 5 2 3 5 5 2 12 12 14 14 14 13 13 13 13 12 12 11 10 11 11 13 12 12 11 10 10 10 10 8 6 5 5
8 6 3 1 3 3 3 1 7 6 2 5 4 3 3 2 1 2 3 5 7 3 7 11 13 14 15 14 14 13 13 13 13 13 13 13 13 13 14 13 12 10 11 12 12 10 8 7 5
9 3 2 1 0 2 5 2 8 2 3 4 3 1 1 1 2 2 4 5 4 4 5 9 14 16 14 14 13 13 13 14 16 17 17 17 15 13 14 14 12 11 12 12 13 12 11 9 7
4 3 3 2 2 2 5 10 3 3 3 4 1 3 2 3 2 3 3 2 4 4 5 7 9 10 13 14 13 13 14 16 18 19 19 19 18 15 15 14 13 10 10 11 14 13 12 10 8
1 1 2 1 3 4 7 6 7 9 4 5 6 4 2 2 3 4 3 3 6 4 4 4 6 9 11 12 14 15 15 17 19 21 21 21 19 17 16 16 14 13 11 11 13 13 13 10 8
2 1 3 3 5 4 6 7 8 10 9 5 5 4 3 2 3 3 4 3 3 2 1 2 3 6 10 13 14 14 14 14 16 18 20 20 20 18 19 18 16 15 13 12 13 15 9 11 9
2 2 4 5 7 6 4 5 6 9 8 7 4 4 1 5 3 4 3 4 5 3 1 1 3 4 5 7 9 11 13 13 15 15 15 17 21 18 18 19 17 15 13 12 13 14 11 11 9
2 3 4 3 5 11 2 5 1 10 11 4 4 4 3 4 7 6 4 4 3 0 3 5 4 5 5 6 10 12 12 13 14 14 13 13 13 15 18 17 15 15 14 13 13 13 11 12 9
3 4 5 5 4 4 3 6 3 0 4 2 3 2 2 10 9 6 3 2 0 3 5 5 5 5 5 6 6 9 11 11 12 10 9 10 6 6 9 13 17 16 14 12 13 12 12 12 10
6 4 5 5 5 8 5 10 7 6 4 4 3 3 7 9 8 7 4 2 3 5 5 4 6 5 6 5 6 6 6 6 7 8 9 7 7 5 6 9 14 15 14 13 12 12 12 11 7
6 10 11 12 17 11 6 7 7 7 6 9 13 11 11 9 7 5 3 3 4 5 6 6 5 5 6 5 4 3 4 4 4 6 7 7 6 6 4 6 7 7 11 6 5 7 7 10 8
8 10 10 8 5 6 5 6 7 11 10 3 11 14 12 11 8 5 3 2 5 7 9 7 6 5 5 4 4 5 4 4 4 4 6 5 4 6 4 5 7 7 6 5 4 4 8 10 9
8 13 5 6 4 4 6 5 7 12 8 3 11 13 12 9 7 4 3 2 4 8 8 7 6 5 5 6 4 5 5 5 5 4 4 3 5 4 5 5 6 6 5 5 4 5 7 9 9
6 9 1 1 1 1 4 2 3 3 7 8 13 14 10 10 9 5 3 3 4 7 7 7 6 5 6 6 6 5 5 4 4 5 5 5 5 3 3 6 6 6 6 4 4 5 7 8 8
4 5 3 2 3 1 3 5 9 7 9 11 12 11 10 9 8 6 5 3 3 6 6 6 6 5 5 6 5 5 5 5 5 4 5 6 6 5 5 5 6 6 5 5 4 7 7 8 7
3 1 2 1 4 1 7 10 12 8 13 14 13 11 10 11 10 7 5 3 3 6 6 5 5 5 5 6 5 5 4 5 5 4 4 6 7 7 6 6 5 5 5 5 6 8 8 8 7
2 6 6 5 5 3 9 9 9 3 13 13 13 13 12 10 9 7 6 4 3 5 6 5 6 6 7 7 5 5 5 3 3 3 4 5 5 7 8 6 5 7 5 6 7 7 8 8 6
9 5 3 3 2 6 7 14 19 8 12 15 14 13 12 12 12 9 7 5 4 5 5 5 5 5 7 6 4 4 1 2 2 2 3 4 2 2 7 5 6 7 6 7 7 8 8 8 7
9 5 5 4 5 5 9 12 17 11 11 13 14 15 14 14 10 8 7 5 5 6 6 5 5 5 5 5 4 3 5 3 2 4 4 5 3 4 7 7 8 7 7 6 9 9 11 7 8
6 4 5 6 4 4 10 14 16 11 9 14 17 16 17 14 11 10 9 6 5 5 5 5 4 5 5 4 3 2 3 1 3 4 5 8 4 4 6 7 6 6 7 9 11 11 8 6 9
6 7 4 9 2 5 7 11 9 7 5 6 11 15 16 18 16 13 11 8 6 4 3 4 4 5 5 7 5 3 3 2 3 3 3 4 4 5 5 7 7 7 6 8 10 11 12 8 7
11 11 7 5 4 9 1 8 7 9 11 9 11 15 17 17 15 13 12 9 7 4 1 2 3 5 4 5 5 5 5 4 3 2 2 5 4 7 7 8 7 7 6 9 8 8 8 7 9
9 6 5 3 7 3 4 5 4 4 9 14 13 15 17 19 18 16 14 11 8 5 2 2 3 4 3 4 5 4 4 4 2 1 3 7 5 7 10 7 10 8 6 6 12 11 9 6 7
4 4 3 2 2 4 7 6 4 5 8 7 6 10 16 19 18 15 14 10 8 6 4 1 2 3 1 3 4 6 7 5 4 4 3 3 2 5 11 10 9 8 9 9 10 13 12 8 9
8 6 5 4 5 6 3 5 9 11 14 13 13 5 14 18 18 16 15 12 9 8 6 3 1 2 1 3 4 5 5 5 4 4 4 4 3 3 8 8 7 6 8 10 10 10 10 9 9
13 12 8 5 4 7 3 5 6 8 5 5 7 4 13 18 17 16 16 13 11 9 8 5 3 2 0 1 4 4 5 4 4 6 5 5 5 4 5 6 6 6 6 9 11 9 8 11 8
7 8 5 8 1 4 3 5 11 6 9 4 3 8 13 18 18 17 16 13 11 9 8 7 5 4 1 1 2 3 5 6 6 5 5 5 3 3 4 5 4 8 8 7 5 6 9 6 6
13 12 6 3 5 7 5 3 7 13 10 2 5 9 13 16 16 15 14 13 11 9 6 7 6 5 3 1 1 3 4 4 5 4 5 4 2 2 5 3 3 7 8 5 5 5 7 6 7
8 9 3 3 4 7 8 5 5 8 4 5 6 10 15 18 18 15 14 13 12 8 7 7 8 6 5 3 2 2 4 4 5 6 5 4 5 5 8 9 8 6 7 5 5 4 6 7 8
22 18 15 10 9 4 5 10 5 7 3 5 3 7 11 17 17 14 14 13 11 10 8 8 8 7 6 5 4 2 4 5 6 6 7 6 7 7 9 9 10 9 9 6 5 7 7 9 8
Wind_Direction
152 157 183 208 227 251 237 180 312 238 212 143 119 171 200 136 183 290 5 205 205 197 194 203 210 211 216 222 229 233 236 237 241 248 259 266 264 268 266 266 265 266 260 252 237 239 241 246 280
155 160 201 154 259 296 335 272 239 234 114 124 137 129 176 240 206 266 233 186 220 185 187 215 213 214 219 224 231 234 244 244 252 258 266 268 262 261 263 257 253 252 256 256 239 229 236 234 253
172 211 229 96 161 319 316 238 289 290 191 182 160 241 185 193 200 247 234 203 213 231 226 218 214 217 225 235 242 251 249 245 253 257 262 262 257 251 255 254 254 250 248 255 245 226 226 227 232
192 153 112 249 287 258 261 302 268 231 153 204 182 221 196 224 191 187 343 204 244 256 268 254 249 241 237 248 257 259 257 260 259 262 264 259 256 243 239 244 245 246 260 263 262 247 213 225 220
65 178 166 175 272 257 242 259 204 208 198 186 174 222 232 197 89 69 360 275 250 257 288 270 255 250 257 263 264 266 269 271 270 271 270 267 256 245 234 235 238 242 246 261 263 258 237 209 217
145 275 232 268 272 254 272 238 193 216 209 138 191 180 211 92 160 53 84 78 49 198 244 264 265 290 278 273 279 292 301 307 304 295 275 268 266 243 231 232 234 239 244 248 264 262 226 232 200
214 219 277 288 294 293 274 150 205 216 224 218 127 205 130 173 115 123 103 91 88 102 193 278 286 307 322 326 321 317 308 306 299 293 291 280 260 248 232 224 231 238 236 245 253 263 244 242 205
184 235 184 228 300 300 297 183 218 211 237 102 162 244 245 165 149 143 127 98 131 30 313 305 299 307 311 327 328 317 312 304 299 290 293 306 286 254 239 228 232 234 237 245 248 260 242 227 204
154 233 254 263 244 286 191 213 148 309 171 134 162 233 335 137 150 155 153 146 249 269 283 293 274 281 303 310 303 308 305 303 311 306 305 305 289 271 250 239 235 231 240 248 251 254 239 222 199
214 230 227 228 220 252 211 213 187 191 156 202 204 123 137 158 177 192 207 245 278 292 292 257 284 279 300 306 311 302 308 312 312 307 307 302 288 277 270 262 250 239 237 251 250 243 241 209 192
190 252 253 254 248 245 239 206 186 203 207 208 215 174 167 178 189 198 229 274 304 314 299 299 316 301 306 307 299 302 324 299 287 289 286 284 280 271 250 252 239 229 240 245 248 241 224 196 189
239 239 246 284 264 193 216 161 204 213 238 150 209 169 174 185 189 193 230 294 315 318 308 318 305 294 308 296 292 308 310 294 304 300 290 295 291 277 253 226 222 195 202 220 238 223 199 190 182
233 259 211 252 251 207 149 216 229 237 221 129 147 164 180 180 182 192 216 293 303 300 306 306 303 304 311 297 299 311 312 312 316 290 268 253 265 258 223 214 201 186 190 215 212 205 181 181 181
239 235 232 100 290 158 204 172 223 294 163 159 165 177 178 182 183 187 208 250 284 300 305 320 323 298 313 308 308 314 309 297 273 257 263 259 270 280 216 190 191 187 188 180 173 168 160 174 178
287 228 146 163 183 53 178 255 233 239 179 178 185 179 178 185 183 198 215 229 283 301 315 326 320 307 323 317 315 315 301 288 266 249 236 243 249 252 242 207 195 187 178 164 150 148 157 168 175
231 209 232 114 163 64 223 259 275 218 183 196 188 187 185 187 195 202 201 225 262 290 312 319 321 315 328 315 313 307 301 286 276 278 270 248 233 220 215 215 195 173 174 169 159 155 160 164 170
220 261 275 293 202 145 216 262 269 196 206 205 194 190 192 190 199 200 200 212 249 285 304 313 309 324 319 311 305 298 300 319 339 302 280 272 262 240 216 204 181 175 168 172 160 156 163 157 152
235 219 201 235 192 207 238 251 271 249 214 217 201 193 193 198 200 190 194 207 242 274 292 302 300 323 323 309 301 282 250 44 320 324 345 310 319 202 184 170 168 161 172 162 164 158 158 159 161
239 230 245 246 250 253 264 272 275 278 235 218 203 197 197 202 194 184 185 204 240 265 280 310 317 349 347 346 343 334 360 2 332 41 5 335 280 143 157 152 157 156 156 171 166 158 150 149 143
206 224 241 271 268 228 286 274 273 264 244 221 210 200 198 190 189 184 186 198 228 276 288 286 316 339 338 326 323 298 334 347 6 16 357 5 145 132 175 162 158 160 159 165 167 163 145 141 144
196 216 213 286 320 243 285 277 268 277 251 231 222 213 200 192 186 184 182 196 217 259 287 302 314 326 342 343 348 312 159 80 50 34 3 356 58 98 139 145 156 154 160 169 165 159 150 143 150
223 218 244 247 269 292 242 293 287 284 283 254 226 207 199 192 191 181 179 188 207 232 248 303 357 344 8 354 25 28 48 55 56 21 50 64 67 67 80 82 96 100 124 134 136 139 123 124 136
238 168 204 229 257 303 216 245 268 290 277 267 236 210 201 190 185 182 180 184 198 210 209 287 1 3 33 31 3 355 42 66 26 44 104 85 56 88 93 98 99 101 91 88 120 113 128 132 129
170 136 93 96 179 247 249 228 267 239 236 258 247 201 195 187 184 181 178 176 195 210 192 192 359 25 34 39 27 19 18 35 67 107 103 103 94 56 76 70 85 92 108 102 117 124 131 119 113
182 196 239 233 215 272 89 200 260 262 252 254 293 236 192 183 179 178 174 180 190 207 188 189 128 70 335 301 331 31 24 42 43 40 43 42 60 37 63 62 71 81 103 109 114 111 122 119 123
196 207 234 235 235 299 135 233 256 255 307 290 276 235 175 178 179 182 177 180 189 199 193 190 160 153 254 341 357 33 27 34 55 59 50 59 67 64 59 78 74 77 85 80 101 120 123 116 120
170 200 234 248 54 263 255 248 279 279 253 235 126 161 170 178 180 182 177 181 189 193 195 195 179 167 208 2 345 35 41 27 43 68 69 66 87 101 81 72 100 140 126 108 89 100 117 105 105
204 159 176 187 226 249 214 267 271 296 299 157 183 188 170 176 184 184 178 182 191 194 176 193 193 180 169 152 32 37 52 33 46 65 97 96 51 33 93 92 99 144 144 107 104 100 128 120 139
177 199 186 237 238 254 275 262 223 258 328 318 222 198 174 176 186 186 179 183 191 187 181 185 185 171 170 175 129 78 79 71 45 62 65 68 88 90 108 126 134 147 140 114 115 136 149 141 142
204 205 203 222 200 238 282 270 219 232 282 289 171 178 192 177 184 185 182 181 187 188 184 188 184 179 174 172 151 120 96 94 72 59 60 53 51 79 102 109 112 106 113 127 132 140 145 146 139